Weather WX

World > North America > United States > Minnesota

Waasa, Minnesota Regional Weather

Lat: 47.67N, Lon: 92.22W
Wx Zone: MNZ019
Feedback

Waasa, MN Regional Weather

Expires:201906260200;;080006
ASUS43 KMPX 260110
RWRMN 
WEATHER ROUNDUP FOR MINNESOTA
NATIONAL WEATHER SERVICE TWIN CITIES/CHANHASSEN MN
800 PM CDT TUE JUN 25 2019


NOTE: "FAIR" INDICATES FEW OR NO CLOUDS BELOW 12,000 FEET WITH NO
SIGNIFICANT WEATHER AND/OR OBSTRUCTIONS TO VISIBILITY. N/A MEANS
CURRENT SKY AND/OR WEATHER CONDITIONS ARE NOT AVAILABLE.


MNZ012-019>021-037-260200-
   Northeast Minnesota   
  
CITY           SKY/WX    TMP DP  RH WIND       PRES   REMARKS
DULUTH         FAIR      70  54  56 NW13      29.76R                  
ELY            FAIR      66  55  68 W10       29.72R                  
HIBBING        FAIR      68  54  60 W8        29.75R                  
EVELETH        FAIR      68  55  64 W14       29.76R                  
DULUTH HARBOR  MOCLDY    72  48  43 W15       29.75R                  
SILVER BAY     FAIR      66  55  68 SW5       29.71R                  
GRAND MARAIS     N/A     48  47  96 SW9       29.66R                  
G MARAIS ARPRT LGT RAIN  61  54  77 W6        29.70R                  
$$

SKY/WX - Weather  TMP - Temperature  DP - Dew Point  RH - Relative Humidity
WIND - Wind Direction/Speed PRES - Barometric Pressure VSB - Visibility
WCI - Wind Chill Index E13G22 Wind - East Wind 13 mph/Gusts of 22 mph